Weather Roundup
Issued by NWS Chicago, IL

Home | Current Version | Previous Version | Graphics & Text | Print | Product List | Glossary On
Versions: 1 2 3 4 5 6 7 8 9 10 11 12 13 14 15 16 17 18 19 20 21 22 23 24 25 26 27 28 29 30 31 32 33 34 35 36 37 38 39 40 41 42 43 44 45 46 47 48 49 50
000
NZUS59 KLOT 230108
HRRLOT

CHICAGO AREA WEATHER ROUNDUP
NATIONAL WEATHER SERVICE CHICAGO/ROMEOVILLE IL
700 PM CST SUN JAN 22 2017

NOTE: "FAIR" INDICATES FEW OR NO CLOUDS BELOW 12,000 FEET WITH NO
SIGNIFICANT WEATHER AND/OR OBSTRUCTIONS TO VISIBILITY.

* THESE STATIONS ARE NOT UNDER NWS QUALITY CONTROL. THEY ALSO MAY NOT
  REPORT WEATHER SUCH AS PRECIPITATION OR FOG.

ILZ005-006-012>014-019>023-230200-
NORTHEAST ILLINOIS

CITY           SKY/WX    TMP DP  RH WIND       PRES   REMARKS
OHARE          CLOUDY    41  38  89 N7        29.64F
MIDWAY         CLOUDY    43  36  76 N16G23    29.63F
AURORA         CLOUDY    39  36  89 N9        29.65S
LANSING*       CLOUDY    40  40 100 N9        29.63F FOG
JOLIET*        CLOUDY    42  40  93 N7        29.63F FOG
WAUKEGAN       CLOUDY    40  37  89 N3        29.65F FOG
DUPAGE AIRPORT CLOUDY    39  36  89 N12       29.64F
WHEELING       CLOUDY    41  37  86 N6        29.66S
KANKAKEE*      CLOUDY    41  38  91 N10       29.63R
MORRIS*        CLOUDY    39  36  88 N6        29.62F
LEWIS AIRPORT* CLOUDY    41  40  97 N9        29.62F
NORTHERLY ISL    N/A     38  37  97 MISG        N/A
$$

WIZ051-052-058>065-066-070>072-230200-
SOUTHEAST WISCONSIN

CITY           SKY/WX    TMP DP  RH WIND       PRES   REMARKS
MILWAUKEE      CLOUDY    42  36  79 NW6       29.67S
KENOSHA*       CLOUDY    40  36  86 N7        29.66S
RACINE*        CLOUDY    38  36  92 N5        29.68F FOG
WAUKESHA       PTCLDY    34  32  93 NW5       29.68S WCI  30
WEST BEND      CLOUDY    36  36 100 NW6       29.68S
$$

INZ001>003-010>013-019-020-230200-
NORTHWEST INDIANA

CITY           SKY/WX    TMP DP  RH WIND       PRES   REMARKS
GARY*          MOCLDY    39  39 100 N12       29.63F FOG
MICHIGAN CITY* NOT AVBL
RENSSELAER*    NOT AVBL
VALPARAISO     FOG       41  41 100 N10G20    29.61F VSB 1
$$

LMZ740>746-230200-
SOUTHERN LAKE MICHIGAN

STATION/POSITION TIME  SKY/WX   TEMP WIND        PRES    VSBY
                                AIR  DIR/SP/G
                 (UTC)          (F)  (DEG/KT/KT) (MB)    (MI)
HARRISON CRIB    0040            38  350/  9/  9   N/A
BURNHAM HARBOR   0100            38  340/  9/  9   N/A
CALUMET HARBOR   0030            37  340/  8/ 11 1003.4F
BURNS HARBOR     0040            37   10/ 11/ 13 1003.7F
MICHIGAN CITY    0040            38  340/ 14/ 15   N/A
$$

ABBREVIATIONS USED IN REMARKS
   TC - TEMPERATURE IN CELSIUS
  WCI - WIND CHILL INDEX
   HX - HEAT INDEX
  VSB - VISIBILITY
$$




USA.gov is the U.S. government's official web portal to all federal, state and local government web resources and services.